Norfolk Island Observation History
Time Wind Speed Temp Pressure Rel. Hum Rain
14/10:00am N 10-16 kts 22.4°c 1010.3 hPa 94% 0.0mm
14/09:35am NNE 15-26 kts 22.2°c 1010.4 hPa 95% 0.0mm
14/09:30am NNE 15-22 kts 22.2°c 1010.3 hPa 95% 0.0mm
14/09:06am NNE 16-26 kts 22.5°c 1010.5 hPa 95% 0.0mm
14/09:00am NNE 17-25 kts 22.3°c 1010.3 hPa 96% 0.0mm
14/08:50am NNE 16-26 kts 22.4°c 1010.3 hPa 95% 0.0mm
14/08:30am NNE 15-22 kts 22.0°c 1010.3 hPa 97% 0.0mm
14/08:00am NNE 18-28 kts 22.0°c 1010.5 hPa 96% 0.2mm
14/07:37am NNE 17-27 kts 21.7°c 1010.4 hPa 98% 0.2mm
14/07:30am NNE 17-26 kts 21.5°c 1010.4 hPa 98% 0.2mm
14/07:00am NNE 19-29 kts 21.4°c 1010.2 hPa 98% 0.2mm
14/06:49am NNE 18-28 kts 21.4°c 1010.0 hPa 98% 0.2mm
14/06:30am NNE 19-28 kts 21.2°c 1010.0 hPa 99% 0.2mm
14/06:00am NNE 19-29 kts 21.1°c 1009.8 hPa 99% 0.2mm
14/05:34am NNE 17-27 kts 21.0°c 1009.5 hPa 99% 0.2mm
14/05:30am NNE 17-26 kts 21.1°c 1009.6 hPa 99% 0.2mm
14/05:16am NNE 16-26 kts 21.0°c 1009.9 hPa 99% 0.2mm
14/05:00am NNE 15-22 kts 21.0°c 1010.5 hPa 98% 0.2mm
14/04:30am NNE 13-21 kts 21.3°c 1011.0 hPa 96% 0.2mm
14/04:00am NNE 13-19 kts 21.2°c 1011.1 hPa 98% 0.2mm
14/03:30am NNE 13-21 kts 21.1°c 1011.3 hPa 97% 0.2mm
14/03:00am NNE 13-18 kts 21.1°c 1011.4 hPa 98% 0.2mm
14/02:30am NNE 13-19 kts 20.9°c 1011.5 hPa 98% 0.2mm
14/02:00am NNE 13-20 kts 21.0°c 1011.8 hPa 96% 0.0mm
14/01:30am NNE 12-21 kts 20.9°c 1012.3 hPa 95% 0.0mm
14/01:00am NNE 14-21 kts 21.0°c 1012.7 hPa 94% 0.0mm
14/12:30am NE 13-21 kts 21.0°c 1013.0 hPa 96% 0.0mm
14/12:10am NE 15-25 kts 21.0°c 1013.3 hPa 94% 0.0mm
14/12:00am NE 14-22 kts 20.9°c 1013.5 hPa 95% 0.0mm
Time Wind Speed Temp Pressure Rel. Hum Rain
13/11:30pm NE 15-21 kts 20.9°c 1013.6 hPa 94% 0.0mm
13/11:00pm NE 13-20 kts 20.9°c 1014.1 hPa 93% 0.0mm
13/10:30pm NE 11-17 kts 20.9°c 1014.7 hPa 93% 0.0mm
13/10:00pm NE 12-18 kts 20.9°c 1015.2 hPa 92% 0.0mm
13/09:30pm NE 12-16 kts 20.9°c 1015.5 hPa 92% 0.0mm
13/09:00pm NE 13-18 kts 20.9°c 1015.9 hPa 91% 0.0mm
13/08:30pm NE 15-20 kts 20.8°c 1015.7 hPa 91% 0.0mm
13/08:05pm NE 13-20 kts 20.9°c 1016.0 hPa 90% 0.0mm
13/08:00pm NE 13-20 kts 20.9°c 1016.0 hPa 88% 0.0mm
13/07:30pm NE 13-19 kts 20.7°c 1015.7 hPa 87% 0.0mm
13/07:15pm NE 13-19 kts 20.7°c 1015.7 hPa 91% 0.0mm
13/07:00pm NE 13-19 kts 20.8°c 1015.7 hPa 88% 0.0mm
13/06:30pm ENE 13-19 kts 20.7°c 1015.8 hPa 90% 0.0mm
13/06:00pm ENE 17-23 kts 20.6°c 1015.2 hPa 92% 0.0mm
13/05:30pm ENE 15-20 kts 20.6°c 1016.1 hPa 90% 0.0mm
13/05:00pm ENE 13-20 kts 20.5°c 1015.9 hPa 93% 0.0mm
13/04:30pm ENE 13-18 kts 20.5°c 1015.8 hPa 93% 0.0mm
13/04:00pm ENE 15-22 kts 20.5°c 1016.0 hPa 91% 0.0mm
13/03:30pm ENE 13-18 kts 20.6°c 1016.0 hPa 92% 0.0mm
13/03:00pm ENE 14-20 kts 20.6°c 1016.1 hPa 92% 0.0mm
13/02:30pm ENE 14-18 kts 20.8°c 1016.2 hPa 91% 0.0mm
13/02:00pm ENE 16-22 kts 20.8°c 1016.1 hPa 90% 0.0mm
13/01:30pm ENE 15-21 kts 20.9°c 1016.2 hPa 91% 0.0mm
13/01:00pm ENE 13-19 kts 21.4°c 1016.5 hPa 88% 0.0mm
13/12:30pm ENE 13-19 kts 21.4°c 1017.1 hPa 89% 0.0mm
13/12:00pm ENE 17-22 kts 21.2°c 1017.6 hPa 87% 0.0mm
13/11:30am ENE 17-23 kts 21.8°c 1017.8 hPa 84% 0.0mm
13/11:00am ENE 17-21 kts 22.1°c 1018.2 hPa 84% 0.0mm
13/10:30am ENE 15-21 kts 21.6°c 1018.6 hPa 85% 0.0mm
13/10:00am ENE 14-20 kts 20.9°c 1018.9 hPa 88% 0.0mm
13/09:38am ENE 16-22 kts 20.7°c 1019.3 hPa 90% 0.0mm
13/09:30am ENE 15-21 kts 20.8°c 1019.6 hPa 90% 0.0mm
13/09:00am ENE 10-15 kts 19.7°c 1020.1 hPa 98% 0.0mm
13/08:41am NE 10-14 kts 19.0°c 1020.5 hPa 100% 0.0mm
13/08:30am NE 13-19 kts 18.5°c 1020.8 hPa 98% 0.0mm
13/08:11am ENE 13-17 kts 19.3°c 1020.9 hPa 94% 0.0mm
13/08:00am E 12-16 kts 20.4°c 1020.6 hPa 90% 0.0mm
13/07:51am E 13-18 kts 20.4°c 1020.6 hPa 90% 0.0mm
13/07:30am E 13-17 kts 20.3°c 1020.4 hPa 91% 0.0mm
13/07:20am E 12-15 kts 20.2°c 1020.6 hPa 90% 0.0mm
13/07:15am E 11-15 kts 20.2°c 1020.7 hPa 90% 0.0mm
13/07:00am E 13-18 kts 20.2°c 1020.5 hPa 90% 0.0mm
13/06:30am E 11-15 kts 20.0°c 1020.1 hPa 92% 0.0mm
13/06:28am E 11-15 kts 20.0°c 1020.1 hPa 91% 0.0mm
13/06:00am E 10-14 kts 19.8°c 1020.2 hPa 92% 0.0mm
13/05:33am E 10-14 kts 19.8°c 1020.3 hPa 92% 0.0mm
13/05:30am E 10-14 kts 19.7°c 1020.3 hPa 92% 0.0mm
13/05:00am E 8-11 kts 19.7°c 1020.2 hPa 93% 0.0mm
13/04:30am E 8-10 kts 19.6°c 1020.1 hPa 93% 0.0mm
13/04:20am E 10-14 kts 19.7°c 1019.8 hPa 93% 0.0mm
13/04:19am ENE 10-14 kts 19.6°c 1019.8 hPa 94% 0.0mm
13/04:04am ENE 8-13 kts 19.6°c 1019.8 hPa 94% 0.0mm
13/04:01am E 9-13 kts 19.5°c 1019.8 hPa 93% 0.0mm
13/04:00am E 9-13 kts 19.5°c 1019.9 hPa 93% 0.0mm
13/03:42am E 9-12 kts 19.5°c 1019.8 hPa 93% 0.0mm
13/03:30am ENE 9-14 kts 19.3°c 1019.7 hPa 93% 0.0mm
13/03:18am ENE 10-13 kts 19.4°c 1019.7 hPa 94% 0.0mm
13/03:00am E 8-11 kts 19.4°c 1019.8 hPa 94% 0.0mm
13/02:30am E 8-10 kts 19.4°c 1020.1 hPa 95% 0.0mm
13/02:00am E 9-14 kts 19.6°c 1019.9 hPa 94% 0.0mm
13/01:30am E 7-9 kts 19.4°c 1020.3 hPa 95% 0.0mm
13/01:00am E 9-12 kts 19.4°c 1020.4 hPa 93% 0.0mm
13/12:59am E 9-12 kts 19.4°c 1020.4 hPa 93% 0.0mm
13/12:58am E 9-12 kts 19.4°c 1020.4 hPa 93% 0.0mm
13/12:30am E 8-12 kts 19.6°c 1020.8 hPa 93% 0.0mm
13/12:11am E 9-14 kts 19.4°c 1020.6 hPa 93% 0.0mm
13/12:00am E 9-14 kts 19.5°c 1020.9 hPa 92% 0.0mm
Time Wind Speed Temp Pressure Rel. Hum Rain
12/11:47pm ENE 9-14 kts 19.5°c 1021.1 hPa 92% 0.0mm
12/11:30pm E 8-11 kts 19.5°c 1021.1 hPa 93% 0.0mm
12/11:20pm ENE 9-13 kts 19.4°c 1021.0 hPa 94% 0.0mm
12/11:00pm E 8-10 kts 19.5°c 1021.1 hPa 95% 0.0mm
12/10:42pm ENE 10-14 kts 19.6°c 1021.5 hPa 93% 0.0mm
12/10:30pm E 10-15 kts 19.6°c 1021.5 hPa 94% 0.0mm
12/10:00pm ENE 11-15 kts 19.8°c 1021.5 hPa 95% 0.0mm
12/09:30pm ENE 9-13 kts 19.8°c 1021.9 hPa 96% 0.0mm
12/09:00pm E 8-12 kts 19.7°c 1022.0 hPa 98% 0.0mm
12/08:51pm E 8-9 kts 19.6°c 1022.1 hPa 98% 0.0mm
12/08:30pm ENE 6-8 kts 19.6°c 1022.4 hPa 97% 0.0mm
12/08:00pm E 6-8 kts 19.7°c 1022.2 hPa 96% 0.0mm
12/07:30pm ENE 8-11 kts 19.9°c 1021.9 hPa 96% 0.0mm
12/07:00pm E 8-11 kts 20.1°c 1022.0 hPa 96% 0.0mm
12/06:47pm ENE 9-12 kts 20.2°c 1022.0 hPa 96% 0.0mm
12/06:30pm E 9-11 kts 20.3°c 1022.1 hPa 96% 0.0mm
12/06:24pm ENE 9-11 kts 20.4°c 1022.1 hPa 96% 0.0mm
12/06:05pm ENE 10-14 kts 20.5°c 1021.9 hPa 96% 0.0mm
12/06:00pm ENE 10-14 kts 20.5°c 1021.9 hPa 96% 0.0mm
12/05:30pm E 8-11 kts 20.4°c 1021.8 hPa 96% 0.0mm
12/05:00pm ENE 10-14 kts 20.4°c 1021.1 hPa 96% 0.0mm
12/04:30pm ENE 12-17 kts 20.4°c 1020.6 hPa 96% 0.0mm
12/04:00pm ENE 13-17 kts 20.5°c 1020.4 hPa 95% 0.0mm
12/03:30pm E 13-18 kts 20.7°c 1020.4 hPa 94% 0.0mm
12/03:00pm ENE 14-18 kts 20.8°c 1020.4 hPa 93% 0.0mm
12/02:52pm ENE 14-17 kts 20.9°c 1020.2 hPa 93% 0.0mm
12/02:48pm ENE 15-19 kts 21.0°c 1020.3 hPa 93% 0.0mm
12/02:30pm ENE 12-16 kts 21.1°c 1020.5 hPa 92% 0.0mm
12/02:14pm E 13-17 kts 21.2°c 1020.7 hPa 92% 0.0mm
12/02:13pm E 12-17 kts 21.2°c 1020.7 hPa 92% 0.0mm
12/02:00pm E 13-17 kts 21.4°c 1020.7 hPa 93% 0.0mm
12/01:30pm ENE 12-16 kts 21.6°c 1021.0 hPa 90% 0.0mm
12/01:15pm E 11-15 kts 21.8°c 1021.1 hPa 89% 0.0mm
12/01:12pm E 11-15 kts 21.9°c 1021.1 hPa 91% 0.0mm
12/01:00pm E 11-14 kts 21.8°c 1021.5 hPa 89% 0.0mm
12/12:30pm E 9-13 kts 22.1°c 1021.8 hPa 89% 0.0mm
12/12:16pm E 10-14 kts 22.1°c 1021.9 hPa 90% 0.0mm
12/12:15pm E 10-14 kts 22.0°c 1021.9 hPa 90% 0.0mm
12/12:00pm E 8-11 kts 21.8°c 1022.2 hPa 91% 0.0mm
12/11:30am E 8-10 kts 21.7°c 1022.6 hPa 89% 0.0mm
12/11:00am ENE 7-10 kts 22.0°c 1023.0 hPa 86% 0.0mm
12/10:49am ENE 7-9 kts 22.1°c 1023.1 hPa 86% 0.0mm
12/10:41am NE 8-11 kts 22.0°c 1023.3 hPa 84% 0.0mm
12/10:30am NE 8-10 kts 22.2°c 1023.4 hPa 83% 0.0mm
12/10:00am E 8-10 kts 22.5°c 1023.2 hPa 84% 0.0mm
12/09:30am NE 7-10 kts 22.5°c 1023.8 hPa 84% 0.0mm
12/09:14am ENE 7-9 kts 22.5°c 1023.8 hPa 84% 0.0mm
12/09:06am ENE 7-8 kts 23.3°c 1023.8 hPa 84% 0.0mm
12/09:00am NE 7-9 kts 22.5°c 1023.9 hPa 87% 0.0mm
12/08:30am NE 7-10 kts 21.8°c 1024.0 hPa 91% 0.0mm
12/08:00am NE 7-9 kts 21.8°c 1023.8 hPa 95% 0.0mm
12/07:59am NE 7-8 kts 21.8°c 1023.8 hPa 94% 0.0mm
12/07:42am ENE 7-10 kts 21.3°c 1023.6 hPa 97% 0.0mm
12/07:30am ENE 8-13 kts 21.0°c 1023.3 hPa 96% 0.0mm
12/07:15am ENE 10-14 kts 21.0°c 1022.9 hPa 97% 0.0mm
12/07:00am ENE 9-11 kts 20.9°c 1022.7 hPa 98% 0.0mm
12/06:31am E 7-10 kts 20.3°c 1022.2 hPa 100% 0.0mm
12/06:30am E 7-9 kts 20.3°c 1022.2 hPa 100% 0.0mm
12/06:00am E 7-10 kts 20.0°c 1021.9 hPa 100% 0.0mm
12/05:30am E 8-10 kts 20.2°c 1021.8 hPa 100% 0.0mm
12/05:00am ENE 7-10 kts 20.2°c 1021.3 hPa 100% 0.0mm
12/04:30am ENE 7-10 kts 20.3°c 1021.5 hPa 100% 0.0mm
12/04:00am ENE 8-11 kts 20.3°c 1021.2 hPa 100% 0.0mm
12/03:31am ENE 8-10 kts 20.1°c 1021.2 hPa 100% 0.0mm
12/03:30am ENE 8-10 kts 20.1°c 1021.2 hPa 100% 0.0mm
12/03:25am ENE 8-10 kts 20.1°c 1021.3 hPa 100% 0.0mm
12/03:08am ENE 7-10 kts 20.0°c 1021.5 hPa 100% 0.0mm
12/03:00am ENE 7-8 kts 19.9°c 1021.6 hPa 100% 0.0mm
12/02:54am ENE 7-8 kts 20.0°c 1021.6 hPa 100% 0.0mm
12/02:32am ENE 6-7 kts 19.7°c 1021.8 hPa 100% 0.0mm
12/02:30am ENE 6-7 kts 19.7°c 1021.8 hPa 100% 0.0mm
12/02:14am NE 6-7 kts 20.2°c 1021.9 hPa 100% 0.0mm
12/02:00am ENE 7-9 kts 20.2°c 1021.9 hPa 100% 0.0mm
12/01:34am NE 6-7 kts 20.3°c 1022.1 hPa 100% 0.0mm
12/01:31am NE 6-8 kts 20.4°c 1022.1 hPa 100% 0.0mm
12/01:30am NE 6-8 kts 20.4°c 1022.1 hPa 100% 0.0mm
12/01:09am NE 6-7 kts 20.2°c 1022.0 hPa 100% 0.0mm
12/01:00am ENE 5 kts 20.3°c 1022.2 hPa 100% 0.0mm
12/12:30am NNE 4-5 kts 20.0°c 1022.3 hPa 100% 0.0mm
12/12:01am E 5-6 kts 20.0°c 1021.9 hPa 100% 0.0mm
12/12:00am E 5-6 kts 20.0°c 1021.9 hPa 100% 0.0mm